Showing default

NORSAT 2, 42828

Orbit data source: Space-Track

NORSAT 2, 42828 is a payload satellite owned by Statsat (NO) in SSO that was launched on Fri, 14 Jul 2017 UTC via a SOYUZ-2-1A launch vehicle from the Tyuratam Missile And Space Complex (TTMTR). Payload-class satellites include a variety of spacecraft equipped with specific instruments for various scientific and technological missions. These include communications satellites like Starlink; space stations such as the ISS; scientific satellites like the Hubble; Earth observation satellites from companies like Planet Labs, Umbra, and HawkEye 360; GPS; miniature CubeSats for education and research; and military/defense satellites.

Loading next visibility...
Identifier
42828, 2017-042D
Orbit
SSO
Country
Flag of NONO / NOR
Related business
Manufacturer
UTIAS-SFL
Mission
Operational Commercial Communications
Bus & Motor
GNB, Unknown motor
Mass
30 kg wet, 30 kg dry
Launch date (UTC)
2017-07-14 (9 years ago)
Launch vehicle
SOYUZ-2-1A
Launch site
Tyuratam Missile And Space Complex (TTMTR)
Object type
Payload
Rocket body
Debris
Shape & HBR
Box + 2 Pan + 4 Ant, 1.2 m
Radar Cross Section
0.202 m², Medium (>0.1 m² and < 1m²)

Expand to show TLE details & history
Last TLE update: 11 hours ago

TLE from 11 hours ago
0 NORSAT 2
1 42828U 17042D   26034.42807071  .00015380  00000-0  74291-3 0  9995
2 42828  97.3928 210.3435 0010241 156.1713 203.9998 15.18689735467419
Epoch: 2026-02-03T10:16Z
TLE epoch observation values (Epoch: 2026-02-03T10:16:25.309Z)
Latitude
0.00003°
Longitude
-77.37111°
Altitude
519.335 km
Speed
7.6 km/s
True Right ascension
14h 01m 22s
True Declination
0° 00' 00"
Sunlit
Object was in daylight at epoch
Visualization orbit readout
Latitude
Unknown
Longitude
Unknown
Altitude
Unknown
Speed
Unknown
Apparent Right ascension
Unknown
Apparent Declination
Unknown
Sunlit
N/A
Visualization observer readout
Local Sidereal Time
22:51:16
Azimuth
Unknown
Elevation
Unknown
Doppler factor
Unknown
Orbital elements
Apogee altitude
513.817 km
Perigee altitude
499.716 km
Semi-major axis
6,884.904 km
Eccentricity
0.00102
Inclination
97.3928°
RAAN
210.3435°
Arg. of periapsis
156.1713°
True anomaly
203.95212°
Mean anomaly
203.9998°
Eccentric anomaly
203.97596°
Mean motion
3.79924 °/min
Orbital period
94.76 mins
BSTAR
0.00074291
Loading maneuver chart data...
Computing Atmospheric mass density...
Loading historical data...
Loading historical data...
Loading historical data...
Loading historical data...
Loading historical data...
Loading historical data...
Loading historical data...

Documentation

Showing up to 5 results
|